GW3011 Weather Reports


time (UTC)temp
F
wind
direction
speed
knots
gust
knots
rain 1hr
in
rain 24hr
in
rain mn
in
humidity
%
barometer
mb
20260906193231 74 107 0.0 0.0 0.00 0.00 0.00 72 1014.2
20260906192728 73 131 0.0 0.0 0.00 0.00 0.00 73 1014.0
20260906192221 73 101 0.0 0.0 0.00 0.00 0.00 75 1014.3
20260906191715 73 159 0.0 0.0 0.00 0.00 0.00 73 1014.1
20260906191209 73 358 0.0 0.0 0.00 0.00 0.00 73 1014.0
20260906190705 74 172 0.0 0.0 0.00 0.00 0.00 72 1014.2
20260906190159 75 33 0.0 0.0 0.00 0.00 0.00 71 1014.0
20260906185658 75 88 0.0 0.0 0.00 0.00 0.00 71 1014.1
20260906185157 74 168 0.0 0.0 0.00 0.00 0.00 72 1014.4
20260906184652 74 144 0.0 0.0 0.00 0.00 0.00 72 1014.5
20260906184148 74 79 0.0 0.0 0.00 0.00 0.00 72 1014.3
20260906183642 73 105 0.0 0.0 0.00 0.00 0.00 73 1014.3
20260906183138 74 329 0.0 0.0 0.00 0.00 0.00 73 1014.3
20260906182633 75 344 0.0 0.0 0.00 0.00 0.00 70 1014.4
20260906182129 73 28 0.0 0.0 0.00 0.00 0.00 73 1014.2
20260906181624 73 262 0.0 0.0 0.00 0.00 0.00 73 1014.5
20260906181120 75 279 0.0 0.0 0.00 0.00 0.00 62 1014.4
20260906180615 76 249 0.0 0.0 0.00 0.00 0.00 60 1014.3
20260906180115 76 154 0.0 0.0 0.00 0.00 0.00 60 1014.3
20260906175613 75 358 0.0 0.0 0.00 0.00 0.00 61 1014.6
20260906175108 76 290 0.0 0.0 0.00 0.00 0.00 61 1014.3
20260906174606 77 293 0.0 0.0 0.00 0.00 0.00 60 1014.3
20260906174055 77 178 0.0 0.0 0.00 0.00 0.00 59 1014.4
20260906173550 75 223 0.0 0.0 0.00 0.00 0.00 61 1014.2
20260906173046 75 223 0.0 0.0 0.00 0.00 0.00 62 1014.5
20260906172540 75 254 0.0 0.0 0.00 0.00 0.00 63 1014.3
20260906172035 77 233 0.0 0.0 0.00 0.00 0.00 61 1014.4
20260906171525 76 205 0.0 0.0 0.00 0.00 0.00 65 1014.6
20260906171021 74 222 0.0 0.0 0.00 0.00 0.00 67 1014.5
20260906170516 74 229 0.0 0.0 0.00 0.00 0.00 67 1014.6
20260906170014 74 241 0.0 0.0 0.00 0.00 0.00 67 1014.5
20260906165512 75 358 0.0 0.0 0.00 0.00 0.00 68 1014.7
20260906165007 74 251 0.0 0.0 0.00 0.00 0.00 68 1014.7
20260906164505 74 245 0.0 0.0 0.00 0.00 0.00 68 1014.4
20260906164002 77 214 0.0 0.0 0.00 0.00 0.00 63 1014.8
20260906163457 76 284 0.0 0.0 0.00 0.00 0.00 64 1014.6
20260906162956 76 7 0.0 0.0 0.00 0.00 0.00 64 1014.8
20260906162455 74 205 0.0 0.0 0.00 0.00 0.00 65 1014.4
20260906161949 74 220 0.0 0.0 0.00 0.00 0.00 66 1014.7
20260906161449 75 273 0.0 0.0 0.00 0.00 0.00 66 1014.7
20260906160948 76 262 0.0 0.0 0.00 0.00 0.00 65 1014.6
20260906160442 76 343 0.0 0.0 0.00 0.00 0.00 65 1014.7
20260906155941 74 306 0.0 0.0 0.00 0.00 0.00 66 1014.7
20260906155439 74 212 0.0 0.0 0.00 0.00 0.00 67 1014.7
20260906154936 73 177 0.0 0.0 0.00 0.00 0.00 69 1014.8
20260906154431 72 295 0.0 0.0 0.00 0.00 0.00 71 1014.8
20260906153929 74 250 0.0 0.0 0.00 0.00 0.00 69 1014.7
20260906153428 73 211 0.0 0.0 0.00 0.00 0.00 69 1014.6
20260906152923 75 233 0.0 0.0 0.00 0.00 0.00 66 1014.8
20260906152418 76 198 0.0 0.0 0.00 0.00 0.00 65 1014.9
20260906151917 77 106 0.0 0.0 0.00 0.00 0.00 65 1014.6
20260906151413 77 188 0.0 0.0 0.00 0.00 0.00 65 1014.5
20260906150909 74 186 0.0 0.0 0.00 0.00 0.00 70 1014.9
20260906150403 73 35 0.0 0.0 0.00 0.00 0.00 70 1014.5
20260906145903 73 313 0.0 0.0 0.00 0.00 0.00 70 1014.6
20260906145356 74 233 0.0 0.0 0.00 0.00 0.00 69 1014.8
20260906144857 72 292 0.0 0.0 0.00 0.00 0.00 72 1014.7
20260906144347 71 160 0.0 0.0 0.00 0.00 0.00 75 1014.7
20260906143847 71 209 0.0 0.0 0.00 0.00 0.00 75 1014.7
20260906143343 72 200 0.0 0.0 0.00 0.00 0.00 73 1014.7
20260906142838 71 128 0.0 0.0 0.00 0.00 0.00 74 1014.6
20260906142333 71 131 0.0 0.0 0.00 0.00 0.00 73 1014.8
20260906141833 72 194 0.0 0.0 0.00 0.00 0.00 72 1014.5
20260906141327 72 93 0.0 0.0 0.00 0.00 0.00 72 1014.5
20260906140826 71 139 0.0 0.0 0.00 0.00 0.00 71 1014.5
20260906140321 72 182 0.0 0.0 0.00 0.00 0.00 70 1014.5
20260906135819 73 86 0.0 0.0 0.00 0.00 0.00 67 1014.4
20260906135314 75 224 0.0 0.0 0.00 0.00 0.00 65 1014.3
20260906134809 74 203 0.0 0.0 0.00 0.00 0.00 65 1014.3
20260906134304 75 210 0.0 0.0 0.00 0.00 0.00 65 1014.2
20260906133800 73 122 0.0 0.0 0.00 0.00 0.00 65 1014.5
20260906133255 72 290 0.0 0.0 0.00 0.00 0.00 68 1014.3
20260906132751 71 185 0.0 0.0 0.00 0.00 0.00 68 1014.6
20260906132246 71 281 0.0 0.0 0.00 0.00 0.00 68 1014.4
20260906131741 72 279 0.0 0.0 0.00 0.00 0.00 66 1014.6
20260906131236 71 285 0.0 0.0 0.00 0.00 0.00 68 1014.3
20260906130732 74 334 0.0 0.0 0.00 0.00 0.00 63 1014.3
20260906130227 72 294 0.0 0.0 0.00 0.00 0.00 64 1014.4
20260906125725 73 220 0.0 0.0 0.00 0.00 0.00 65 1014.3
20260906125223 72 280 0.0 0.0 0.00 0.00 0.00 66 1014.2
20260906124724 71 283 0.0 0.0 0.00 0.00 0.00 66 1014.1
20260906124220 72 293 0.0 0.0 0.00 0.00 0.00 64 1014.3
20260906123718 72 291 0.0 0.0 0.00 0.00 0.00 66 1014.0
20260906123214 72 292 0.0 0.0 0.00 0.00 0.00 68 1014.0
20260906122713 72 292 0.0 0.0 0.00 0.00 0.00 67 1014.2
20260906122208 72 272 0.0 0.0 0.00 0.00 0.00 67 1014.0
20260906121705 71 216 0.0 0.0 0.00 0.00 0.00 69 1014.2
20260906121201 71 216 0.0 0.0 0.00 0.00 0.00 70 1014.1
20260906120656 70 247 0.0 0.0 0.00 0.00 0.00 72 1013.9
20260906120153 70 270 0.0 0.0 0.00 0.00 0.00 71 1014.1
20260906115648 68 234 0.0 0.0 0.00 0.00 0.00 74 1013.7
20260906115144 68 204 0.0 0.0 0.00 0.00 0.00 76 1013.7
20260906114642 68 273 0.0 0.0 0.00 0.00 0.00 76 1013.7
20260906114138 67 285 0.0 0.0 0.00 0.00 0.00 77 1013.7
20260906113637 67 110 0.0 0.0 0.00 0.00 0.00 79 1013.6
20260906113132 67 130 0.0 0.0 0.00 0.00 0.00 80 1013.8
20260906112631 66 135 0.0 0.0 0.00 0.00 0.00 81 1013.4
20260906112129 66 312 0.0 0.0 0.00 0.00 0.00 81 1013.4
20260906111628 66 75 0.0 0.0 0.00 0.00 0.00 82 1013.3
20260906111123 66 157 0.0 0.0 0.00 0.00 0.00 82 1013.5
20260906110617 66 133 0.0 0.0 0.00 0.00 0.00 82 1013.3
20260906110112 66 161 0.0 0.0 0.00 0.00 0.00 82 1013.1
20260906105607 66 297 0.0 0.0 0.00 0.00 0.00 83 1013.2
20260906105103 66 257 0.0 0.0 0.00 0.00 0.00 82 1013.2
20260906104602 66 131 0.0 0.0 0.00 0.00 0.00 83 1013.0
20260906104056 67 167 0.0 0.0 0.00 0.00 0.00 83 1013.1
20260906103554 66 251 0.0 0.0 0.00 0.00 0.00 84 1013.0
20260906103050 66 281 0.0 0.0 0.00 0.00 0.00 86 1012.9
20260906102549 67 286 0.0 0.0 0.00 0.00 0.00 87 1012.5
20260906102045 67 162 0.0 0.0 0.00 0.00 0.00 87 1012.8
20260906101539 67 348 0.0 0.0 0.00 0.00 0.00 88 1012.8
20260906101033 67 320 0.0 0.0 0.00 0.00 0.00 88 1012.7
20260906100530 67 149 0.0 0.0 0.00 0.00 0.00 89 1012.5
20260906100030 67 320 0.0 0.0 0.00 0.00 0.00 89 1012.6
20260906095524 67 342 0.0 0.0 0.00 0.00 0.00 90 1012.6
20260906095020 67 299 0.0 0.0 0.00 0.00 0.00 90 1012.6
20260906094519 66 299 0.0 0.0 0.00 0.00 0.00 91 1012.7
20260906094015 66 299 0.0 0.0 0.00 0.00 0.00 91 1012.5
20260906093510 66 300 0.0 0.0 0.00 0.00 0.00 91 1012.3
20260906093005 66 304 0.0 0.0 0.00 0.00 0.00 91 1012.3
20260906092500 66 300 0.0 0.0 0.00 0.00 0.00 91 1012.1
20260906091955 66 300 0.0 0.0 0.00 0.00 0.00 91 1012.1
20260906091450 66 300 0.0 0.0 0.00 0.00 0.00 91 1011.9
20260906090947 66 300 0.0 0.0 0.00 0.00 0.00 91 1012.0
20260906090442 66 300 0.0 0.0 0.00 0.00 0.00 91 1011.9
20260906085942 66 300 0.0 0.0 0.00 0.00 0.00 90 1011.8
20260906085441 66 300 0.0 0.0 0.00 0.00 0.00 90 1011.7
20260906084940 66 301 0.0 0.0 0.00 0.00 0.00 91 1012.0
20260906084435 66 320 0.0 0.0 0.00 0.00 0.00 91 1011.9
20260906083934 66 10 0.0 0.0 0.00 0.00 0.00 91 1011.8
20260906083430 66 151 0.0 0.0 0.00 0.00 0.00 91 1011.8
20260906082929 66 344 0.0 0.0 0.00 0.00 0.00 90 1011.7
20260906082425 67 328 0.0 0.0 0.00 0.00 0.00 90 1011.8
20260906081920 67 115 0.0 0.0 0.00 0.00 0.00 88 1011.6
20260906081415 67 286 0.0 0.0 0.00 0.00 0.00 89 1011.7
20260906080912 67 140 0.0 0.0 0.00 0.00 0.00 87 1011.6
20260906080408 67 168 0.0 0.0 0.00 0.00 0.00 86 1011.4
20260906075907 67 148 0.0 0.0 0.00 0.00 0.00 85 1011.7
20260906075402 68 235 0.0 0.0 0.00 0.00 0.00 85 1011.6
20260906074858 68 45 0.0 0.0 0.00 0.00 0.00 85 1011.7
20260906074357 68 12 0.0 0.0 0.00 0.00 0.00 85 1011.7
20260906073856 68 267 0.0 0.0 0.00 0.00 0.00 85 1011.4
20260906073351 69 224 0.0 0.0 0.00 0.00 0.00 85 1011.5
20260906072848 69 232 0.0 0.0 0.00 0.00 0.00 87 1011.5
20260906072343 69 176 0.0 0.0 0.00 0.00 0.00 87 1011.5
20260906071839 69 171 0.0 0.0 0.00 0.00 0.00 87 1011.5
20260906071334 69 268 0.0 0.0 0.00 0.00 0.00 87 1011.6
20260906070830 69 164 0.0 0.0 0.00 0.00 0.00 86 1011.3
20260906070325 69 168 0.0 0.0 0.00 0.00 0.00 86 1011.2
20260906065820 69 161 0.0 0.0 0.00 0.00 0.00 85 1011.5
20260906065315 69 172 0.0 0.0 0.00 0.00 0.00 83 1011.2
20260906064811 69 191 0.0 0.0 0.00 0.00 0.00 83 1011.3
20260906064307 69 205 0.0 0.0 0.00 0.00 0.00 81 1011.3
20260906063801 69 179 0.0 0.0 0.00 0.00 0.00 80 1011.5
20260906063257 70 206 0.0 0.0 0.00 0.00 0.00 80 1011.4
20260906062752 70 270 0.0 0.0 0.00 0.00 0.00 78 1011.6
20260906062251 70 271 0.0 0.0 0.00 0.00 0.00 77 1011.4
20260906061747 70 271 0.0 0.0 0.00 0.00 0.00 76 1011.6
20260906061243 70 179 0.0 0.0 0.00 0.00 0.00 76 1011.6
20260906060738 70 182 0.0 0.0 0.00 0.00 0.00 76 1011.6
20260906060236 71 271 0.0 0.0 0.00 0.00 0.00 75 1011.8
20260906055731 70 288 0.0 0.0 0.00 0.00 0.00 76 1011.6
20260906055226 70 86 0.0 0.0 0.00 0.00 0.00 76 1011.8
20260906054721 70 65 0.0 0.0 0.00 0.00 0.00 77 1011.5
20260906054216 70 50 0.0 0.0 0.00 0.00 0.00 77 1011.8
20260906053713 70 49 0.0 0.0 0.00 0.00 0.00 77 1011.6
20260906053208 69 48 0.0 0.0 0.00 0.00 0.00 77 1012.0
20260906052703 70 63 0.0 0.0 0.00 0.00 0.00 76 1011.8
20260906052159 70 63 0.0 0.0 0.00 0.00 0.00 76 1011.9
20260906051656 70 101 0.0 0.0 0.00 0.00 0.00 76 1011.8
20260906051155 70 101 0.0 0.0 0.00 0.00 0.00 75 1011.7
20260906050651 71 264 0.0 0.0 0.00 0.00 0.00 74 1011.7
20260906050146 71 151 0.0 0.0 0.00 0.00 0.00 74 1011.8
20260906045644 71 146 0.0 0.0 0.00 0.00 0.00 74 1011.8
20260906045140 71 189 0.0 0.0 0.00 0.00 0.00 74 1011.9
20260906044636 71 228 0.0 0.0 0.00 0.00 0.00 74 1012.0
20260906044131 71 210 0.0 0.0 0.00 0.00 0.00 73 1012.0
20260906043627 71 153 0.0 0.0 0.00 0.00 0.00 73 1012.0
20260906043122 71 199 0.0 0.0 0.00 0.00 0.00 74 1011.7
20260906042621 71 156 0.0 0.0 0.00 0.00 0.00 74 1011.6
20260906042115 71 186 0.0 0.0 0.00 0.00 0.00 74 1011.8
20260906041612 71 240 0.0 0.0 0.00 0.00 0.00 74 1011.4
20260906041111 71 270 0.0 0.0 0.00 0.00 0.00 74 1011.5
20260906040607 71 175 0.0 0.0 0.00 0.00 0.00 73 1011.8
20260906035557 72 278 0.0 0.0 0.00 0.00 0.00 73 1011.8
20260906035053 72 307 0.0 0.0 0.00 0.00 0.00 72 1011.9
20260906034548 72 177 0.0 0.0 0.00 0.00 0.00 71 1012.0
20260906034042 72 348 0.0 0.0 0.00 0.00 0.00 71 1011.8
20260906033538 72 184 0.0 0.0 0.00 0.00 0.00 70 1011.9
20260906033028 72 211 0.0 0.0 0.00 0.00 0.00 70 1011.7
20260906032524 72 200 0.0 0.0 0.00 0.00 0.00 70 1011.7
20260906032018 72 210 0.0 0.0 0.00 0.00 0.00 69 1011.7
20260906031514 72 238 0.0 0.0 0.00 0.00 0.00 69 1011.5
20260906031010 73 170 0.0 0.0 0.00 0.00 0.00 68 1011.4
20260906030509 73 187 0.0 0.0 0.00 0.00 0.00 68 1011.5
20260906030008 73 219 0.0 0.0 0.00 0.00 0.00 67 1011.6
20260906025508 73 211 0.0 0.0 0.00 0.00 0.00 67 1011.6
20260906025006 73 251 0.0 0.0 0.00 0.00 0.00 67 1011.3
20260906024501 73 276 0.0 0.0 0.00 0.00 0.00 67 1011.4
20260906023956 73 231 0.0 0.0 0.00 0.00 0.00 67 1011.4
20260906023452 73 140 0.0 0.0 0.00 0.00 0.00 67 1011.5
20260906022952 74 182 0.0 0.0 0.00 0.00 0.00 65 1011.6
20260906022443 74 203 0.0 0.0 0.00 0.00 0.00 66 1011.4
20260906021937 74 159 0.0 0.0 0.00 0.00 0.00 66 1011.5
20260906021432 74 191 0.0 0.0 0.00 0.00 0.00 66 1011.4
20260906020932 74 188 0.0 0.0 0.00 0.00 0.00 66 1011.4
20260906020426 74 190 0.0 0.0 0.00 0.00 0.00 66 1011.5
20260906015921 74 187 0.0 0.0 0.00 0.00 0.00 66 1011.4
20260906015420 74 181 0.0 0.0 0.00 0.00 0.00 65 1011.4
20260906014915 75 211 0.0 0.0 0.00 0.00 0.00 65 1011.1
20260906014414 75 226 0.0 0.0 0.00 0.00 0.00 65 1011.1
20260906013911 75 206 0.0 0.0 0.00 0.00 0.00 64 1011.2
20260906013406 75 305 0.0 0.0 0.00 0.00 0.00 64 1011.0
20260906012902 75 266 0.0 0.0 0.00 0.00 0.00 63 1011.1
20260906012356 75 176 0.0 0.0 0.00 0.00 0.00 62 1010.8
20260906011855 75 174 0.0 0.0 0.00 0.00 0.00 62 1011.0
20260906011350 75 204 0.0 0.0 0.00 0.00 0.00 61 1011.2
20260906010846 75 224 0.0 0.0 0.00 0.00 0.00 61 1011.0
20260906010342 75 232 0.0 0.0 0.00 0.00 0.00 61 1010.9
20260906005838 75 217 0.0 0.0 0.00 0.00 0.00 62 1010.7
20260906005337 76 206 0.0 0.0 0.00 0.00 0.00 62 1010.6
20260906004836 76 197 0.0 0.0 0.00 0.00 0.00 61 1010.8
20260906004336 76 255 0.0 0.0 0.00 0.00 0.00 60 1010.9
20260906003831 76 213 0.0 0.0 0.00 0.00 0.00 60 1010.7
20260906003326 76 198 0.0 0.0 0.00 0.00 0.00 59 1010.6
20260906002822 76 156 0.0 0.0 0.00 0.00 0.00 59 1010.5
20260906002321 76 196 0.0 0.0 0.00 0.00 0.00 59 1010.3
20260906001817 76 212 0.0 0.0 0.00 0.00 0.00 58 1010.3
20260906001312 76 166 0.0 0.0 0.00 0.00 0.00 61 1010.3
20260906000808 77 202 0.0 0.0 0.00 0.00 0.00 58 1010.3
20260906000303 77 223 0.0 0.0 0.00 0.00 0.00 58 1010.0
20260905235757 76 226 0.0 0.0 0.00 0.00 0.00 58 1010.0
20260905235257 77 185 0.0 0.0 0.00 0.00 0.00 59 1010.1
20260905234752 77 168 0.0 0.0 0.00 0.00 0.00 58 1010.0
20260905234247 77 217 0.0 0.0 0.00 0.00 0.00 59 1009.6
20260905233742 77 197 0.0 0.0 0.00 0.00 0.00 60 1009.8
20260905233241 77 185 0.0 0.0 0.00 0.00 0.00 59 1010.0
20260905232736 77 191 0.0 0.0 0.00 0.00 0.00 59 1009.8
20260905232232 77 186 0.0 0.0 0.00 0.00 0.00 58 1010.1
20260905231728 77 196 0.0 0.0 0.00 0.00 0.00 58 1010.1
20260905231223 77 213 0.0 0.0 0.00 0.00 0.00 57 1010.1
20260905230719 77 223 0.0 0.0 0.00 0.00 0.00 58 1010.1
20260905230216 77 186 0.0 0.0 0.00 0.00 0.00 56 1010.1
20260905225711 77 205 0.0 0.0 0.00 0.00 0.00 56 1009.9
20260905225206 77 190 0.0 0.0 0.00 0.00 0.00 55 1010.0
20260905224705 78 225 0.0 0.0 0.00 0.00 0.00 55 1009.9
20260905224201 78 195 0.0 0.0 0.00 0.00 0.00 55 1010.0
20260905223657 78 215 0.0 0.0 0.00 0.00 0.00 54 1009.6
20260905223154 78 253 0.0 0.0 0.00 0.00 0.00 55 1009.7
20260905222648 78 227 0.0 0.0 0.00 0.00 0.00 53 1009.9
20260905222143 78 240 0.0 0.0 0.00 0.00 0.00 54 1010.0
20260905221638 78 201 0.0 0.0 0.00 0.00 0.00 55 1009.6
20260905221135 78 201 0.0 0.0 0.00 0.00 0.00 54 1009.6
20260905220631 79 211 0.0 0.0 0.00 0.00 0.00 54 1009.6
20260905220127 79 223 0.0 0.0 0.00 0.00 0.00 53 1009.4
20260905215626 79 225 0.0 0.0 0.00 0.00 0.00 52 1009.6
20260905215122 79 150 0.0 0.0 0.00 0.00 0.00 52 1009.4
20260905214618 79 250 0.0 0.0 0.00 0.00 0.00 54 1009.5
20260905214118 79 219 0.0 0.0 0.00 0.00 0.00 53 1009.5
20260905213613 79 197 0.0 0.0 0.00 0.00 0.00 53 1009.6
20260905213108 79 238 0.0 0.0 0.00 0.00 0.00 53 1009.7
20260905212603 79 174 0.0 0.0 0.00 0.00 0.00 53 1009.6
20260905212102 80 144 0.0 0.0 0.00 0.00 0.00 54 1009.3
20260905211558 80 215 0.0 0.0 0.00 0.00 0.00 52 1009.3
20260905211053 81 217 0.0 0.0 0.00 0.00 0.00 52 1009.3
20260905210549 80 217 0.0 0.0 0.00 0.00 0.00 51 1009.4
20260905210043 79 224 0.0 0.0 0.00 0.00 0.00 53 1009.5
20260905205542 79 246 0.0 0.0 0.00 0.00 0.00 52 1009.6
20260905205037 80 223 0.0 0.0 0.00 0.00 0.00 53 1009.5
20260905204532 80 209 0.0 0.0 0.00 0.00 0.00 51 1009.2
20260905204027 80 227 0.0 0.0 0.00 0.00 0.00 51 1009.5
20260905203526 80 164 0.0 0.0 0.00 0.00 0.00 54 1009.4
20260905203022 80 172 0.0 0.0 0.00 0.00 0.00 54 1009.2
20260905202517 79 205 0.0 0.0 0.00 0.00 0.00 53 1009.2
20260905202012 79 213 0.0 0.0 0.00 0.00 0.00 53 1009.1
20260905201508 81 189 0.0 0.0 0.00 0.00 0.00 53 1009.2
20260905201002 81 200 0.0 0.0 0.00 0.00 0.00 51 1009.3
20260905200458 80 220 0.0 0.0 0.00 0.00 0.00 51 1009.3
20260905195956 79 78 0.0 0.0 0.00 0.00 0.00 55 1009.3
20260905195451 79 173 0.0 0.0 0.00 0.00 0.00 53 1009.2
20260905194947 79 203 0.0 0.0 0.00 0.00 0.00 55 1009.4
20260905194446 79 203 0.0 0.0 0.00 0.00 0.00 53 1009.4
20260905193941 79 230 0.0 0.0 0.00 0.00 0.00 52 1009.4